SCP
1 1 1 2 2 1 1 1 1 1 1 1 1 1 2 2 2 2 1 1 1 1 1 1 1 0 0 0 0 1 1 1 1 1 1 1 0 0 0 0 0 0 0
1 1 1 2 2 1 1 1 1 1 1 1 1 1 2 2 2 2 1 1 1 1 1 1 1 1 1 0 0 1 1 1 1 1 1 0 0 1 1 0 0 0 0
1 1 1 2 2 1 1 1 1 1 1 1 1 1 1 2 2 1 1 1 1 1 1 1 1 1 1 1 1 1 1 1 1 1 0 0 0 0 1 0 0 0 0
1 1 1 2 1 1 1 1 1 1 1 1 1 1 1 1 1 1 1 1 1 1 1 1 1 1 1 1 1 1 1 1 1 0 0 0 0 0 0 0 0 0 0
1 1 1 2 2 2 1 1 1 1 1 1 1 1 1 1 1 1 1 1 1 1 0 0 0 0 1 1 0 0 0 1 0 0 0 0 0 0 0 0 0 0 0
1 1 2 2 2 2 2 2 1 1 1 1 1 1 1 1 1 1 1 1 1 1 1 0 0 1 1 1 0 0 0 0 0 0 0 0 0 0 0 0 0 0 0
1 1 2 2 2 2 2 2 2 1 1 1 1 1 1 1 1 1 1 1 1 1 1 1 0 1 1 1 1 0 0 0 0 0 0 0 0 0 0 0 0 0 0
1 1 1 1 1 1 2 2 2 2 2 1 1 1 1 1 1 1 2 2 1 1 1 0 0 0 0 0 0 0 0 0 0 0 0 0 0 0 0 0 0 0 1
1 1 1 1 1 1 1 1 2 2 2 2 1 1 1 1 1 1 2 2 2 1 1 0 0 0 0 0 0 0 0 0 0 0 0 0 0 0 0 0 0 0 0
1 1 1 1 1 1 1 1 1 1 1 1 1 1 1 1 1 1 1 2 2 1 1 0 0 0 0 0 0 0 0 0 0 0 0 0 0 0 0 0 0 0 0
1 1 1 1 1 1 1 1 1 1 1 1 1 1 1 1 1 1 1 1 1 1 1 0 0 0 0 0 0 0 0 0 0 0 0 0 0 0 0 0 0 0 0
1 1 1 1 0 0 0 0 0 1 1 1 1 1 1 1 1 1 1 1 1 1 0 1 1 0 0 0 0 0 0 0 0 0 0 0 0 0 0 0 0 0 0
0 1 1 0 0 0 0 0 0 0 0 0 0 0 0 1 1 0 0 0 0 0 0 0 0 0 0 0 0 0 0 0 0 0 0 0 0 0 1 1 1 0 0
0 0 0 0 0 0 0 0 0 0 0 0 0 0 0 0 0 0 0 0 0 0 0 0 0 0 0 0 0 0 0 0 0 0 0 0 0 0 1 1 1 0 0
0 0 0 0 0 0 0 0 0 0 0 0 0 0 0 0 0 0 0 0 0 0 0 0 0 0 0 0 0 0 0 0 0 0 0 0 0 0 1 1 0 0 0
0 0 0 0 0 0 0 0 0 0 0 0 0 0 0 0 0 0 0 0 0 0 0 0 0 0 0 0 0 0 0 0 0 0 0 0 0 0 0 0 0 0 0
0 0 0 0 0 0 0 0 0 0 0 0 0 0 0 0 0 0 0 0 0 0 0 0 0 0 0 0 0 0 0 0 0 0 0 0 0 0 0 0 0 0 0
0 0 0 0 0 0 0 0 0 0 0 0 0 0 0 0 0 0 0 0 0 0 0 0 0 0 0 0 0 0 0 0 0 0 0 0 0 0 0 0 0 0 0
0 0 0 0 0 0 0 0 0 0 0 0 0 0 0 0 0 0 0 0 0 0 0 0 0 0 0 0 0 0 0 0 0 0 0 0 0 0 0 0 0 0 0
0 0 0 0 0 0 0 0 0 0 0 0 0 0 0 0 0 0 0 0 0 0 0 0 0 0 0 0 0 0 0 0 0 0 0 0 0 0 0 0 0 0 0
0 0 0 0 0 0 0 0 0 0 0 0 0 0 0 0 0 0 0 0 0 0 0 0 0 0 0 0 0 0 0 0 0 0 0 0 0 0 0 0 0 0 0
0 0 0 0 0 0 0 0 0 0 0 0 0 0 0 0 0 0 0 0 0 0 0 0 0 0 0 0 0 0 0 0 0 0 0 0 0 0 0 0 0 0 0
0 0 0 0 0 0 0 0 0 0 0 0 0 0 0 0 0 0 0 0 0 0 0 0 0 0 0 0 0 0 0 0 0 0 0 0 0 0 0 0 0 0 0
0 0 0 0 0 0 0 0 0 0 0 0 0 0 0 0 0 0 0 0 0 0 0 0 0 0 0 0 0 0 0 0 0 0 0 0 0 0 0 0 0 0 0
0 0 0 0 1 0 0 0 0 0 0 0 0 0 0 0 0 0 0 0 0 0 0 0 0 0 0 0 0 0 0 0 0 0 0 0 0 0 0 0 0 0 0
0 0 0 0 1 1 0 0 0 0 0 0 0 0 0 0 0 0 0 0 0 0 0 0 0 0 0 0 0 0 0 0 0 0 0 0 0 0 0 0 0 0 0
Wind_Speed
3 5 9 9 11 11 10 11 11 11 10 11 11 11 11 11 11 11 11 11 11 11 11 11 11 11 12 12 12 12 12 12 12 12 12 12 12 11 11 11 10 7 11
4 6 8 9 11 11 10 11 11 10 10 10 11 11 11 11 11 11 10 10 11 11 11 12 12 12 12 12 11 11 11 11 11 11 11 10 11 11 10 10 10 7 10
5 5 7 8 10 10 10 10 10 10 10 11 11 11 10 10 10 10 10 10 11 11 11 12 12 12 11 11 11 10 10 10 11 10 9 5 6 10 10 10 10 10 10
6 5 6 7 9 10 10 10 10 10 10 10 10 10 10 9 10 10 10 10 11 11 11 11 11 11 10 10 10 10 10 10 10 9 5 4 4 8 9 9 9 10 10
6 5 6 7 8 9 10 9 9 10 10 10 10 10 10 9 9 10 10 10 10 10 10 11 10 10 9 9 10 10 10 10 9 7 4 4 3 7 9 9 8 9 9
5 5 6 7 7 8 8 9 8 9 9 9 9 10 10 9 10 10 10 10 10 9 10 10 10 9 9 9 9 9 9 9 7 4 4 3 3 6 7 7 8 8 8
5 4 5 7 7 7 7 7 8 8 9 8 8 9 9 9 10 10 10 10 9 9 9 9 9 9 8 8 8 8 8 8 5 4 3 3 3 6 6 6 7 7 7
5 4 4 6 6 6 5 5 6 8 8 8 8 8 9 9 9 9 9 9 9 9 8 8 8 8 7 8 8 8 7 6 5 4 3 2 4 6 6 6 6 6 6
5 4 3 3 4 4 5 5 5 7 7 7 8 8 8 8 8 8 8 8 8 8 8 8 7 7 7 7 7 7 7 6 4 2 2 2 4 5 5 5 5 5 5
5 4 3 2 2 2 3 5 5 5 6 7 7 7 7 7 7 7 6 7 8 8 8 7 7 7 7 6 6 7 6 5 3 3 1 2 4 5 5 5 5 5 4
3 3 2 2 1 2 2 4 4 4 5 6 6 7 6 4 4 4 5 7 8 8 7 7 7 6 6 5 5 5 4 2 2 2 1 3 4 4 4 4 4 4 4
1 1 1 1 1 1 2 2 2 3 3 3 3 4 4 3 3 3 5 6 6 6 6 7 7 6 4 3 3 4 2 2 2 1 1 3 4 4 3 3 3 3 3
2 1 1 1 1 1 1 2 2 2 2 3 4 4 4 3 3 2 2 2 3 4 2 3 4 2 2 2 2 2 2 2 1 1 1 3 3 3 3 3 3 2 3
2 1 1 1 1 1 1 2 2 2 2 2 3 5 4 3 3 2 2 2 2 2 2 2 2 2 2 2 2 2 2 1 1 1 1 2 2 3 2 2 2 2 2
2 2 1 1 2 2 2 2 2 2 2 3 3 4 4 4 3 3 2 2 1 2 2 2 2 2 2 2 2 2 2 1 1 1 0 1 2 2 2 1 1 2 2
1 1 1 2 2 2 2 2 2 2 2 2 2 3 4 4 4 3 2 2 2 2 2 3 3 3 2 1 2 2 1 1 1 1 0 0 2 2 2 2 1 1 2
1 0 1 2 2 2 2 2 2 2 2 2 2 2 3 3 4 4 3 2 2 2 2 2 3 2 2 1 1 1 1 0 0 0 0 0 1 2 2 3 3 3 3
0 0 0 1 1 2 2 2 2 2 2 2 2 2 3 3 3 3 3 2 2 2 2 2 2 2 2 1 1 0 0 1 1 0 0 0 1 1 2 3 3 3 3
1 1 1 1 2 2 2 2 2 2 2 2 1 1 2 2 3 3 3 2 2 2 2 2 2 2 2 1 1 1 1 0 0 0 0 0 1 1 1 2 3 4 4
0 1 1 1 1 1 2 2 2 2 2 2 1 1 2 2 2 3 2 2 3 2 2 2 2 2 2 2 2 1 1 1 0 0 0 1 1 1 1 1 2 2 3
2 2 1 2 1 2 1 1 2 1 1 1 2 2 2 2 2 3 2 2 2 2 2 3 2 2 1 1 2 1 2 1 1 0 0 0 0 1 1 1 1 1 2
2 2 2 2 2 1 1 1 1 2 1 2 2 2 2 2 1 2 2 2 2 2 2 2 3 2 1 1 2 2 0 2 2 1 0 0 0 1 1 1 1 1 1
2 2 1 1 2 2 2 2 2 2 2 2 1 1 2 1 1 2 2 2 2 2 2 2 3 3 2 1 1 2 2 2 1 1 1 0 0 1 1 1 1 1 1
1 1 2 2 2 2 2 2 3 2 1 0 0 1 1 2 2 1 1 2 2 2 2 2 3 2 3 2 1 0 1 2 2 1 1 1 1 1 1 1 1 2 1
1 1 2 2 3 3 2 2 2 2 1 1 1 1 1 1 2 2 2 1 1 1 1 1 2 2 2 3 2 1 1 0 1 2 2 2 2 1 1 1 1 1 1
2 2 2 3 3 3 3 2 2 2 2 2 1 1 0 0 1 1 1 1 0 0 1 1 1 2 2 2 2 2 2 2 2 2 2 2 2 2 2 1 1 1 1
Wind_Direction
168 169 164 156 149 143 139 136 130 126 122 120 118 114 112 110 108 107 106 108 106 103 102 98 95 94 89 86 85 84 81 78 75 73 73 74 74 75 74 73 71 71 76
156 162 161 158 151 143 140 140 137 133 129 126 122 119 116 115 113 110 108 106 106 104 103 99 96 94 92 90 87 85 82 78 73 70 68 69 73 75 78 78 79 80 79
136 153 157 155 149 145 142 142 141 138 135 133 128 124 121 119 117 113 110 109 107 105 103 101 98 95 94 93 91 87 84 81 76 69 65 54 67 76 79 80 80 81 81
138 138 146 148 148 147 146 145 145 142 140 139 135 130 127 124 120 117 115 110 107 106 106 104 100 97 96 93 88 86 83 82 78 68 59 47 56 75 78 80 80 78 78
131 133 135 132 141 147 149 149 151 147 145 143 140 135 132 128 122 118 115 110 108 107 108 106 102 98 94 91 86 82 79 75 75 65 54 45 52 73 77 80 80 79 78
129 134 136 132 132 139 146 151 152 149 147 145 143 139 136 132 126 122 117 114 111 109 108 107 105 99 95 92 87 82 79 77 68 58 53 41 53 75 78 82 80 81 82
124 126 135 130 131 134 140 150 153 150 148 146 144 141 138 136 130 126 123 119 116 113 110 107 104 98 95 93 88 80 78 79 74 62 51 37 59 78 80 83 82 83 84
120 119 128 130 126 127 135 141 146 146 145 146 144 140 137 133 130 128 126 123 121 120 117 111 105 101 96 93 89 79 74 78 76 66 51 43 71 79 80 82 84 84 82
100 105 111 124 129 127 126 130 134 140 142 143 141 137 130 126 124 125 126 126 124 123 120 116 111 107 100 94 88 81 73 73 71 69 57 47 70 78 80 81 84 85 87
81 85 92 94 106 121 127 120 124 129 135 136 131 127 124 123 123 122 125 128 127 126 122 117 114 108 100 90 86 84 76 70 65 59 51 68 72 80 81 77 75 79 81
70 65 70 78 93 117 131 125 122 122 125 125 126 124 120 115 119 126 127 127 127 125 126 122 115 105 95 86 83 80 73 69 69 58 51 78 80 79 80 80 77 76 80
117 78 79 82 99 126 137 128 125 121 120 121 124 123 117 115 116 122 127 127 128 126 126 125 117 103 90 81 77 73 67 74 70 60 56 76 85 85 80 78 76 79 83
180 158 173 178 142 142 143 137 132 128 126 130 132 131 122 113 111 103 109 119 122 121 115 116 108 100 99 103 92 84 79 76 70 54 46 65 87 91 88 88 85 84 84
180 194 202 175 162 169 157 151 146 141 141 144 146 142 136 131 128 129 121 122 133 130 129 121 116 111 107 106 108 101 91 87 78 70 43 45 59 79 84 91 94 87 86
194 208 206 182 175 170 159 159 148 152 153 152 151 153 148 145 148 148 143 129 143 145 143 140 133 123 117 112 111 107 107 107 110 86 36 31 28 45 43 57 82 86 88
233 233 203 186 176 161 162 164 157 154 154 147 148 155 154 149 150 152 148 144 152 158 152 149 144 135 130 121 119 123 136 141 153 108 58 15 15 20 20 21 21 41 60
225 263 224 187 162 156 161 160 146 144 138 139 148 147 146 148 155 154 153 155 165 154 143 130 127 122 126 115 114 126 135 134 119 95 69 40 18 11 25 28 28 29 28
151 102 260 144 135 145 150 152 139 141 138 136 140 144 140 144 151 149 153 165 159 143 140 135 132 126 133 127 114 40 61 90 102 119 89 52 41 21 14 22 23 15 4
194 158 125 105 128 147 148 135 120 120 127 131 127 131 138 139 142 145 155 159 147 139 136 140 131 141 146 141 129 81 42 45 88 88 111 80 71 47 14 3 16 10 3
126 142 118 100 98 113 122 103 94 92 99 103 110 109 118 130 134 140 144 141 137 130 133 137 136 120 130 131 102 68 11 340 9 125 147 82 59 67 52 24 10 349 348
38 57 81 81 74 98 118 128 126 118 106 89 85 77 94 111 135 132 132 132 127 139 151 149 138 130 115 113 94 47 10 8 12 356 357 75 34 45 37 23 8 347 334
47 45 66 65 75 92 119 148 130 125 108 95 83 74 71 82 111 125 126 142 142 136 140 150 139 141 135 134 134 133 344 343 353 357 341 178 285 18 4 356 352 332 328
45 34 48 58 62 63 67 87 84 77 67 55 54 66 51 68 88 97 127 136 144 147 156 168 161 154 164 173 138 153 163 215 294 332 355 16 10 351 323 327 334 335 330
28 28 43 60 61 60 77 100 115 120 120 121 152 83 64 60 61 72 101 123 133 140 156 167 162 162 160 177 193 146 158 160 174 268 312 332 342 310 304 319 324 319 324
48 60 52 66 59 54 70 99 119 103 109 89 70 71 66 56 56 58 65 81 113 129 139 151 154 158 168 174 173 167 131 77 194 187 249 292 319 307 295 292 295 302 315
48 61 66 73 60 52 63 76 105 109 100 88 77 92 97 73 54 47 60 81 113 134 164 181 178 173 183 173 170 164 164 173 196 192 220 262 282 291 304 299 295 301 314